Wind_Speed
37 35 33 32 30 29 27 26 25 23 22 21 19 18 17 17 15 15 14 14 13 12 10 9 8 8 8 8 9 9 8 8 8 8 8 8 8 9 10 11 12 13 14 15 15 16 17 17 17 17 17 16 15 15 16 16 17 18 18 19 19 18 20 22 25 31 33 33 35 36 36 37 39 39 40 40 40 39 40 39 40 40 41 42 44
38 36 34 33 31 30 28 27 26 25 24 23 21 20 19 18 17 16 15 14 13 12 11 10 10 10 10 10 10 9 9 8 8 8 8 8 8 9 10 11 13 13 14 15 16 17 17 18 18 17 17 16 15 15 16 17 17 18 18 18 19 18 19 22 25 29 34 36 37 38 38 38 40 40 41 42 43 42 42 42 42 42 42 42 43
38 36 35 34 32 31 29 28 28 26 25 24 22 21 20 19 18 17 16 16 14 13 12 12 12 12 12 12 11 11 10 9 8 8 8 9 9 9 10 12 13 14 15 15 16 17 18 18 18 17 17 16 15 15 16 17 17 18 17 17 18 19 19 21 24 28 34 37 39 39 40 40 41 41 41 42 43 44 44 44 44 44 45 45 44
38 37 36 35 34 32 31 30 29 28 26 25 23 23 21 20 19 19 18 17 16 15 14 14 14 14 13 13 12 12 11 9 9 9 9 9 10 10 11 12 13 15 15 16 17 17 18 18 18 17 17 16 15 15 16 17 17 17 17 17 18 20 20 22 24 28 32 37 40 40 41 41 42 42 42 43 43 43 44 45 45 45 45 45 46
39 38 37 36 35 34 33 32 31 29 27 26 25 24 22 21 21 21 20 19 17 16 15 15 15 15 14 14 13 12 11 10 10 9 10 10 11 11 12 13 14 15 16 16 17 18 19 19 19 18 17 16 15 16 16 17 17 17 18 18 19 21 22 24 26 28 32 37 40 41 42 42 42 43 42 43 45 45 45 44 45 45 46 46 45
40 39 38 37 36 35 35 34 32 30 28 27 26 25 24 23 23 22 21 20 18 17 17 16 16 16 15 15 14 13 12 11 11 10 11 11 12 12 13 14 15 16 16 16 17 18 19 20 19 18 17 17 16 16 17 17 18 18 19 20 21 22 24 25 27 30 33 36 40 42 43 43 43 43 43 43 45 46 46 46 46 45 46 46 45
41 40 39 38 37 37 36 35 33 31 29 28 27 26 25 25 25 24 22 21 19 19 18 18 17 17 16 16 15 14 14 13 12 12 12 13 13 14 14 16 16 16 16 16 17 18 19 20 20 19 18 17 17 18 18 18 19 19 20 21 22 23 25 27 29 31 34 37 39 41 43 43 43 44 45 44 44 44 44 46 48 47 44 43 43
42 40 40 39 39 38 37 36 34 32 30 29 28 27 27 27 26 24 23 22 21 20 19 18 18 18 17 17 16 16 15 15 14 14 14 14 15 16 16 17 18 17 17 17 17 18 20 20 20 20 19 18 18 19 19 20 21 21 21 22 23 25 26 28 30 33 35 37 40 41 43 45 45 46 47 46 45 45 42 41 44 46 45 43 42
43 41 41 41 40 39 38 36 34 33 32 31 30 29 29 28 27 25 24 23 22 21 20 20 19 19 19 18 17 17 17 17 16 15 15 16 17 17 18 19 20 19 17 17 17 18 20 21 21 20 19 19 19 20 20 21 22 22 23 23 24 26 28 30 32 34 36 38 40 41 43 45 45 46 47 45 43 42 40 39 42 45 47 48 46
43 43 43 42 41 40 38 37 35 34 33 32 31 31 30 29 28 27 26 24 24 23 22 22 21 20 20 19 19 19 19 18 18 17 17 18 19 19 20 21 21 20 18 17 18 18 20 21 21 20 20 20 20 21 21 22 22 23 23 24 25 27 29 31 33 34 36 38 40 40 41 43 43 41 43 42 39 39 40 42 45 47 49 51 52
44 44 44 43 42 41 39 38 36 35 34 33 33 32 31 30 29 28 27 26 26 25 24 23 22 22 21 21 21 21 20 20 19 19 20 20 21 21 22 23 22 21 19 18 18 19 20 21 21 20 20 20 21 21 22 22 22 23 23 24 25 27 29 31 32 34 35 37 38 37 36 39 39 37 37 39 40 40 42 43 46 48 49 50 52
45 45 44 43 43 42 40 38 36 35 35 34 34 33 32 31 30 30 29 28 27 26 25 25 24 23 23 23 23 23 22 21 21 21 22 22 23 24 24 24 24 22 20 19 20 20 21 21 21 20 20 20 21 21 22 22 22 23 24 24 26 27 28 29 31 33 32 33 35 35 33 34 36 35 36 39 42 43 44 45 45 46 48 49 51
45 45 45 44 43 42 39 38 37 36 36 35 34 33 32 32 32 31 30 29 28 27 27 26 26 26 26 25 25 24 23 23 23 23 24 24 25 26 27 26 25 23 21 20 21 21 21 22 22 21 20 20 21 22 23 23 23 23 24 25 26 27 28 29 29 29 29 30 34 35 32 31 34 36 36 38 41 43 44 45 44 43 45 48 48
45 45 45 44 43 40 39 38 37 37 36 35 34 34 33 33 33 32 31 30 29 29 28 28 28 28 28 27 26 26 25 24 25 25 26 26 27 28 29 29 27 24 22 22 22 22 22 23 23 22 21 21 21 22 23 23 24 25 25 26 27 28 30 31 29 28 28 28 30 33 32 31 33 36 36 35 38 41 43 44 43 44 46 48 48
44 44 45 43 41 40 39 38 38 37 36 36 35 35 34 34 34 33 31 31 30 30 29 29 29 29 29 29 28 28 27 26 27 28 28 28 28 29 31 31 29 26 24 24 24 23 23 23 24 24 23 22 22 23 24 24 24 25 26 27 28 30 31 32 31 30 30 29 29 30 31 30 31 34 35 35 36 38 41 43 43 45 47 48 48
40 41 42 41 40 40 39 39 39 38 37 37 36 35 35 36 35 32 31 31 31 31 31 31 30 30 30 31 31 30 29 28 29 30 30 29 29 31 32 32 30 27 26 26 26 25 25 25 25 25 24 23 23 23 24 24 25 26 27 28 30 31 32 32 32 30 27 25 24 26 28 29 31 33 34 34 35 37 40 42 42 41 41 42 44
33 36 37 38 38 38 39 39 39 38 38 37 36 36 36 36 34 32 32 32 33 33 32 31 31 31 31 32 32 32 31 30 31 31 31 31 31 32 33 32 31 29 27 27 27 27 27 26 26 27 26 25 24 24 24 24 26 27 28 29 30 32 32 32 32 30 26 25 26 28 30 31 32 33 32 32 33 34 37 39 39 38 37 37 40
28 30 31 32 33 34 35 37 38 37 37 37 36 36 36 35 33 32 32 33 32 32 32 31 31 31 32 32 32 32 32 32 32 32 32 31 32 33 33 32 31 30 29 29 29 29 28 27 27 27 27 26 24 24 24 24 26 27 28 29 30 31 32 31 31 31 31 31 31 31 31 31 30 30 30 30 30 30 32 34 35 35 34 33 33
24 24 23 25 27 29 31 33 35 35 35 35 35 35 34 33 32 31 31 32 32 31 31 31 31 31 32 32 32 32 32 32 32 33 32 32 33 33 33 32 32 31 30 30 30 30 30 29 28 27 27 27 25 25 24 25 26 26 26 27 29 30 30 30 32 34 34 33 32 31 30 29 29 29 29 28 28 27 28 29 30 31 31 29 28
16 16 17 20 22 24 26 29 30 31 31 31 32 32 32 31 31 30 30 31 31 31 31 31 32 32 32 32 32 32 32 32 32 32 32 32 32 33 33 33 32 31 31 31 32 32 32 31 29 27 27 27 26 25 25 24 25 25 25 26 28 28 28 29 32 33 33 32 31 30 29 28 27 28 27 26 26 25 25 26 26 26 26 27 27
11 12 14 16 18 20 22 24 25 26 27 28 29 30 30 29 29 29 29 30 30 31 31 31 32 32 32 33 33 33 32 32 31 31 32 32 31 32 33 33 32 32 32 33 33 33 33 32 30 28 27 27 26 25 25 24 23 22 23 24 25 26 28 31 32 31 30 30 29 28 27 27 26 26 25 25 25 25 25 24 24 23 23 24 27
10 11 13 14 15 17 18 20 21 22 23 25 26 27 27 27 27 27 28 29 29 30 31 31 32 33 33 34 34 33 33 32 31 31 31 31 31 32 33 33 32 32 33 34 35 34 33 32 31 29 28 27 25 25 25 23 20 20 23 25 25 26 28 30 30 29 28 28 27 26 25 25 26 25 24 24 24 24 24 24 23 23 22 22 24
10 11 12 13 14 15 16 17 18 20 21 22 23 24 24 25 26 27 28 28 29 31 32 33 34 34 35 35 35 34 33 31 30 30 30 31 32 32 33 33 33 34 34 35 35 34 33 33 32 30 28 26 25 25 23 20 18 22 25 25 25 26 27 27 27 27 27 26 25 24 24 24 25 24 24 24 24 24 23 23 23 23 23 23 23
10 11 12 12 13 13 14 15 16 18 19 20 21 22 23 24 25 26 27 29 30 31 33 34 35 36 35 35 34 33 32 31 31 31 31 32 33 33 33 34 34 34 35 35 35 34 34 34 33 31 29 26 25 24 21 19 22 25 25 24 25 26 26 25 26 26 26 25 24 24 23 23 23 23 23 23 23 23 23 23 23 23 23 24 24
11 11 11 11 12 13 14 15 16 17 18 19 20 21 22 23 24 25 27 28 30 32 33 34 35 35 35 35 34 33 33 34 34 33 33 33 34 34 34 34 34 35 35 35 35 34 34 34 34 32 30 27 26 24 22 23 25 25 23 24 25 25 24 24 25 25 25 24 23 23 22 22 22 21 21 22 22 23 23 23 23 23 24 25 25
11 11 11 11 12 13 14 15 16 17 19 20 21 22 22 23 24 26 28 30 31 32 33 34 35 35 35 35 35 35 36 37 37 36 35 35 36 36 35 35 34 35 36 36 35 35 35 34 34 33 31 28 26 25 26 27 25 23 22 23 24 23 23 24 24 24 24 23 23 22 22 21 20 19 20 21 21 22 24 25 25 25 25 27 28
12 13 13 13 14 15 15 16 17 19 20 22 23 24 25 26 27 28 30 31 32 33 33 34 35 36 36 37 37 38 39 40 40 39 38 37 38 37 35 35 35 35 36 36 35 34 34 33 33 32 31 28 27 27 28 27 24 22 22 22 22 22 23 23 23 23 23 23 23 22 20 19 19 18 19 20 22 23 24 25 27 27 27 28 30
14 16 16 17 18 19 19 19 20 21 22 24 25 27 28 29 30 31 31 32 33 34 34 35 37 38 38 39 40 41 42 43 43 41 39 38 37 35 34 34 35 35 36 35 34 33 32 32 32 33 32 30 29 29 28 26 23 23 22 21 21 22 22 23 23 22 22 23 23 22 20 19 18 19 20 21 22 23 24 25 26 27 28 29 30
14 15 17 19 20 21 23 24 24 25 26 27 28 30 31 32 33 33 34 35 36 36 37 38 39 40 41 42 43 44 45 45 43 40 37 36 34 33 33 34 34 34 34 33 32 32 33 33 34 34 33 32 31 30 28 24 22 22 22 21 22 22 22 23 22 21 22 22 22 21 21 20 19 19 21 22 23 24 25 26 26 27 28 29 31
15 16 17 18 20 21 22 23 25 27 29 30 32 33 34 35 35 36 36 37 37 38 39 40 41 42 43 44 44 45 46 45 43 41 39 37 35 33 33 33 33 33 32 30 31 33 34 34 35 35 33 32 31 30 27 24 22 22 21 21 22 22 22 22 21 21 21 21 21 21 21 20 20 21 22 24 24 25 25 26 26 28 29 30 31
18 19 20 21 23 23 24 24 25 26 27 29 32 34 35 36 37 37 37 37 37 38 39 39 40 41 42 43 43 43 43 43 43 42 40 38 36 34 34 33 32 32 30 29 30 33 34 34 35 35 33 31 29 28 26 24 23 23 22 22 22 22 22 21 21 22 21 20 20 21 20 21 22 22 23 25 26 26 26 27 27 28 29 30 31
20 21 22 24 25 26 27 27 26 26 26 27 28 30 32 33 34 35 35 36 37 37 37 37 37 38 39 40 41 41 40 39 39 39 38 37 35 35 34 33 32 31 28 27 28 31 33 34 34 34 33 31 29 28 27 25 25 24 24 23 22 21 21 21 21 21 21 21 21 21 21 21 22 23 24 25 26 27 28 28 27 28 29 30 31
22 23 25 26 26 27 28 28 28 28 28 27 28 28 28 30 30 31 31 32 33 34 35 35 35 35 35 36 37 38 38 36 35 35 36 36 35 34 33 32 31 28 25 25 28 31 32 34 35 36 36 34 31 30 28 27 27 26 25 24 23 21 20 21 22 22 21 21 21 21 21 22 23 24 24 25 26 28 28 28 29 29 30 31 32
24 25 26 26 27 27 28 28 28 28 28 27 27 27 27 28 28 29 29 29 30 30 30 31 31 31 31 31 31 32 32 32 31 31 31 31 31 30 28 28 28 26 24 26 30 32 34 37 39 39 38 35 33 31 30 28 28 27 26 25 24 22 21 21 22 22 21 21 22 22 22 22 23 24 25 26 27 28 29 29 29 29 30 31 32
25 26 26 26 27 27 27 27 27 27 27 26 26 26 26 27 27 27 28 28 28 28 27 26 26 27 27 27 26 26 26 27 28 27 26 25 24 23 23 25 28 28 28 30 33 35 37 39 40 39 36 34 33 33 32 29 28 27 26 25 24 23 22 21 21 21 21 21 22 22 22 23 24 25 26 27 28 29 29 30 29 29 30 31 31
25 25 25 25 26 26 26 26 26 25 25 25 25 25 25 25 25 25 25 25 25 25 24 23 22 21 22 23 23 23 24 25 26 26 27 27 26 24 25 28 31 32 33 35 36 37 37 38 38 37 35 34 34 34 33 31 29 27 26 26 25 24 22 21 21 21 22 21 21 22 23 24 25 25 26 27 28 29 30 30 29 29 29 29 29
24 24 24 24 24 24 24 24 24 23 23 23 22 22 22 22 22 22 21 21 20 20 20 20 19 19 19 19 21 23 24 25 26 27 27 27 27 27 29 31 33 35 37 38 38 39 39 37 36 35 34 34 35 35 33 31 29 28 27 26 26 24 23 22 21 22 22 21 21 22 23 24 25 25 26 28 29 29 30 30 30 29 28 28 28
22 23 23 23 23 22 22 22 21 21 20 20 20 20 20 19 19 19 18 17 17 17 17 18 18 19 19 19 20 23 24 25 27 27 27 27 26 27 28 31 33 36 38 38 38 38 38 37 35 33 33 34 35 35 33 30 29 28 27 26 26 25 23 23 22 22 22 22 22 22 24 24 25 26 27 28 29 29 30 30 29 29 28 27 28
21 21 21 20 20 19 19 19 18 18 18 18 18 17 17 17 17 16 16 16 16 17 17 18 18 19 20 21 21 23 24 25 26 27 27 27 27 27 28 29 31 34 35 36 37 37 37 37 36 35 35 35 34 34 32 31 29 28 27 27 26 25 24 23 22 22 22 22 22 23 24 25 25 26 27 28 28 29 29 29 28 27 27 28 28
20 19 18 17 17 16 16 16 16 16 16 16 15 15 15 15 16 16 16 16 17 17 17 18 19 19 21 22 22 23 25 26 27 27 27 27 27 27 28 29 30 32 33 34 35 36 37 37 37 37 36 35 34 34 33 31 29 28 27 27 26 25 23 23 23 23 22 23 23 23 24 25 26 27 27 27 27 27 28 28 27 26 26 27 28
17 16 15 14 14 14 14 14 14 14 14 14 14 14 15 15 15 16 16 16 17 18 18 18 19 19 20 20 20 21 23 25 26 27 28 28 28 28 28 28 29 30 30 31 31 32 33 33 34 34 34 34 35 34 33 31 29 27 26 26 25 24 24 23 23 23 23 23 23 24 24 25 26 27 27 27 26 26 27 27 26 25 25 25 26
14 14 14 13 13 13 13 13 13 13 13 13 13 14 14 15 15 16 16 17 17 18 17 18 18 18 18 19 19 20 22 23 24 26 27 28 29 29 29 29 28 27 27 27 27 28 28 29 29 30 32 33 33 32 30 28 27 26 25 25 25 24 24 23 23 23 23 23 24 25 25 26 26 27 27 26 26 26 26 26 25 24 24 24 24
13 13 13 13 13 13 12 12 12 12 13 13 14 14 15 15 15 16 16 16 16 16 16 16 16 16 16 17 18 19 20 21 22 24 25 25 26 27 27 28 27 26 25 24 24 24 25 25 26 26 28 28 28 27 26 26 25 25 24 24 24 24 24 23 23 23 23 24 25 25 26 26 26 26 26 25 25 25 26 25 25 24 24 24 24
12 12 12 12 12 12 12 12 12 13 13 14 14 15 15 15 15 15 15 15 15 15 15 15 15 15 15 16 17 18 18 19 20 20 21 21 22 23 23 23 24 23 23 22 22 21 22 23 23 24 24 23 24 24 24 23 23 23 23 23 24 24 23 22 22 23 24 25 26 26 26 25 25 25 25 24 24 25 25 24 23 23 23 23 23
11 11 11 11 11 11 12 13 13 14 14 14 14 14 14 13 13 13 13 13 13 13 13 13 14 14 14 15 16 17 17 18 18 19 19 19 19 19 19 20 20 20 20 20 20 21 21 22 22 22 21 21 21 21 21 21 22 22 23 23 23 23 23 22 22 23 25 26 26 26 25 25 24 24 24 23 23 23 23 23 22 22 22 22 22
10 9 10 11 11 12 13 13 14 14 13 13 13 13 12 12 12 12 11 12 11 12 12 12 13 13 14 14 15 16 17 18 18 18 18 18 17 17 18 18 18 18 18 18 19 20 21 21 21 20 19 18 19 20 20 21 21 22 22 22 23 23 22 22 23 24 25 25 25 25 25 25 24 23 22 22 22 22 22 22 21 20 20 21 21
9 10 11 12 12 12 12 12 13 13 12 12 12 12 11 11 11 11 11 11 11 11 12 12 12 13 13 14 15 15 16 17 17 17 17 17 17 17 17 17 17 17 17 17 17 18 18 18 17 16 16 16 18 19 20 20 21 21 21 22 22 22 22 23 24 24 24 24 25 24 24 23 23 22 22 21 21 21 21 20 20 19 19 20 19
10 10 11 11 11 11 11 11 11 11 11 11 11 11 11 10 10 10 11 11 11 12 12 12 12 13 13 13 14 15 16 16 17 17 17 17 17 16 17 17 17 17 16 16 16 16 15 14 14 14 14 15 17 19 20 20 20 20 21 21 22 22 22 23 23 23 23 24 24 23 22 22 22 22 21 21 20 20 20 19 19 18 18 18 17
10 10 10 10 10 10 10 10 10 10 10 10 10 10 10 10 10 11 11 11 11 12 12 12 12 13 13 14 14 15 15 16 16 16 16 17 17 16 16 16 16 17 16 16 15 15 15 14 14 14 15 16 17 18 19 19 19 19 20 20 21 21 22 22 23 22 23 23 22 21 21 21 21 21 21 20 20 20 19 19 19 18 18 18 17
10 10 10 10 10 9 9 10 10 10 10 10 10 10 11 11 12 12 12 12 12 12 12 13 13 13 14 14 15 15 15 15 16 16 16 16 16 16 16 16 16 16 16 16 16 15 15 15 15 15 16 16 17 17 18 18 18 19 19 20 20 21 21 21 22 22 22 21 20 20 20 21 21 20 20 19 20 20 19 18 18 18 17 17 16
9 9 9 9 9 9 10 10 10 10 10 10 11 11 12 12 13 13 13 13 13 13 13 13 14 14 14 14 15 15 15 15 15 15 15 16 16 16 16 16 16 16 16 16 15 15 15 16 16 16 16 17 17 17 18 18 18 18 18 19 20 20 20 21 21 20 20 19 19 20 20 20 20 20 19 19 19 19 19 18 18 17 17 17 16
Wind_Direction
196 196 195 195 196 196 196 195 194 194 193 192 191 190 191 192 192 194 196 196 197 199 205 212 221 230 235 239 243 250 259 269 278 289 299 308 315 324 330 334 337 338 337 336 336 336 336 335 332 329 325 321 317 314 313 311 309 308 307 308 310 313 315 315 314 314 315 317 321 324 327 326 325 326 325 324 325 325 324 324 323 322 322 322 321
199 199 198 197 198 199 199 198 198 198 196 194 194 195 197 197 198 201 202 204 206 209 216 224 230 234 236 241 246 251 259 267 276 286 295 303 313 321 328 333 335 336 335 335 335 335 335 335 332 328 323 319 316 312 310 308 306 305 306 307 310 314 316 315 315 315 315 317 320 323 325 325 324 324 324 324 324 325 323 323 322 322 322 321 320
202 201 200 200 200 201 202 203 202 201 199 199 199 200 202 202 205 207 209 211 213 217 225 231 234 238 240 243 248 251 257 263 271 281 290 299 309 318 323 329 332 332 333 332 333 334 334 334 332 327 322 316 312 308 305 304 302 302 304 307 309 312 313 313 313 314 315 316 320 323 324 324 323 322 323 323 322 322 321 321 321 321 321 321 320
204 204 202 202 202 203 205 206 206 204 203 204 204 205 206 207 210 212 214 217 220 224 230 234 237 241 243 246 249 251 254 260 268 277 286 295 304 311 318 323 326 327 328 329 331 333 333 334 331 326 320 312 307 304 301 300 299 299 302 305 306 308 310 311 311 312 313 315 319 322 321 321 322 321 321 321 320 320 320 320 320 319 319 319 319
207 206 204 203 204 206 208 209 209 208 208 208 208 209 211 212 214 216 218 221 225 230 234 237 240 242 244 247 250 251 253 259 266 274 282 290 299 306 311 316 318 320 323 325 329 331 331 331 329 324 316 309 304 300 298 297 296 296 299 302 304 306 308 311 312 312 312 313 317 320 319 319 320 320 319 320 319 319 319 318 317 317 317 316 316
208 208 207 206 207 209 211 212 212 212 212 212 212 214 215 217 219 221 222 225 229 233 236 239 241 242 244 247 250 251 254 259 264 271 279 287 294 300 304 308 310 312 316 321 324 326 327 327 325 321 313 306 301 298 296 293 293 294 297 300 303 305 309 311 312 312 312 313 314 316 318 317 317 319 319 319 319 320 320 317 316 317 317 316 314
210 210 210 209 211 213 215 215 215 215 216 216 216 218 219 221 223 225 226 228 232 236 238 240 241 241 244 247 249 251 254 257 263 269 277 285 291 296 300 302 303 305 310 315 319 322 324 324 322 318 310 303 299 296 295 292 291 294 296 300 303 306 309 311 311 312 312 313 313 314 316 316 317 318 318 320 321 322 324 324 319 317 317 316 315
212 212 212 213 215 217 218 218 218 218 219 219 220 221 222 224 226 227 229 232 235 238 240 241 241 241 244 245 247 250 253 257 263 268 275 284 288 293 297 297 296 299 304 309 314 318 320 321 320 315 308 301 297 295 293 291 292 293 296 300 303 306 308 310 312 313 312 313 313 314 315 316 317 319 319 321 323 323 327 329 323 320 320 319 317
215 215 215 216 218 219 220 220 220 220 221 221 222 223 225 227 228 229 231 234 236 238 238 239 240 241 244 245 246 249 253 258 262 268 275 282 286 290 294 293 293 295 299 305 310 314 317 317 317 313 305 299 295 294 293 291 293 295 298 301 303 306 309 311 312 313 313 313 313 313 315 316 318 320 319 322 327 327 328 330 326 324 324 321 318
218 218 220 220 221 221 221 221 222 222 222 224 225 226 227 229 230 231 233 235 236 236 236 237 239 242 243 244 247 251 254 258 262 268 275 280 284 288 291 291 292 293 295 300 306 310 314 315 314 311 304 297 293 292 292 291 293 296 298 302 304 307 310 311 312 312 311 312 312 313 315 315 317 321 320 323 330 331 330 330 327 324 325 321 318
221 222 223 224 223 223 222 223 223 224 225 226 227 228 229 231 233 234 234 235 235 235 236 238 240 241 243 245 248 251 254 258 263 269 274 278 283 286 289 291 291 291 293 298 303 307 310 312 312 310 303 295 291 290 290 290 292 295 297 299 303 305 307 309 310 310 309 310 310 312 313 314 317 322 324 327 331 330 328 328 324 322 322 318 315
225 226 226 226 226 225 224 224 225 226 227 228 229 230 231 233 235 236 236 236 235 235 237 239 240 241 242 245 248 250 254 258 264 269 274 278 282 285 288 289 289 289 290 295 300 304 307 309 310 309 304 295 290 289 289 290 291 292 295 297 300 303 305 305 306 306 306 307 308 309 313 318 321 324 327 329 328 326 324 323 320 318 316 313 312
228 229 229 228 228 227 226 227 228 229 230 231 231 232 234 236 238 238 238 237 237 238 240 241 241 241 243 245 248 251 254 260 265 270 273 277 281 284 287 287 287 287 288 292 297 300 303 306 308 309 305 297 292 290 289 290 292 293 295 297 300 303 304 302 302 303 306 308 309 312 319 324 323 324 326 326 323 321 320 319 318 316 313 310 309
232 232 232 231 230 229 229 230 231 232 233 233 234 235 237 239 240 240 239 238 238 240 241 242 242 242 244 247 249 252 255 260 266 270 274 277 280 283 286 286 286 286 287 290 294 297 301 304 306 308 306 299 294 291 290 291 293 294 296 298 300 302 302 302 303 307 311 314 315 318 322 323 320 320 322 322 319 317 315 313 312 309 305 302 301
236 236 235 234 234 233 233 233 234 234 234 235 236 238 240 242 241 240 240 240 242 244 244 245 244 245 247 249 251 253 256 261 266 270 273 276 278 281 284 285 285 286 287 288 291 295 298 301 304 307 306 302 296 292 292 293 293 294 297 298 300 301 302 304 309 313 318 320 319 318 318 318 316 315 315 313 310 306 302 300 299 298 298 298 300
240 240 239 239 239 238 238 237 236 236 235 236 238 240 243 244 243 242 242 242 244 245 245 245 246 248 250 251 253 255 258 262 266 271 273 275 277 280 282 283 284 285 285 287 289 293 296 299 303 305 306 304 299 293 292 293 293 295 297 298 300 301 303 308 314 317 318 314 308 306 306 306 306 305 305 304 301 299 298 297 298 300 302 303 304
242 242 242 243 243 243 241 240 239 237 237 238 241 244 246 247 246 245 244 244 244 245 246 247 248 250 251 253 256 258 260 263 266 270 272 274 276 278 280 282 282 283 284 285 288 291 294 298 301 303 304 303 298 294 292 291 291 293 295 297 299 302 306 312 316 316 311 303 300 301 302 304 305 305 306 306 305 304 303 302 304 305 306 306 306
242 243 244 246 246 245 244 243 242 240 240 242 245 248 249 250 250 248 247 246 247 248 249 251 252 253 254 256 259 260 262 264 266 268 271 273 275 277 279 280 280 281 282 284 286 289 292 295 298 301 303 301 296 292 289 288 289 291 294 297 300 303 308 313 314 310 307 306 307 308 308 309 311 311 312 312 311 309 306 305 307 307 307 309 311
242 244 247 247 246 246 246 246 245 245 245 247 249 252 253 254 253 251 249 249 249 250 251 252 254 255 256 258 260 261 261 263 265 268 270 272 274 276 277 278 279 281 282 283 285 288 290 293 296 299 300 298 295 291 289 288 288 291 294 297 300 304 309 309 306 306 308 310 311 312 313 314 315 315 316 316 315 312 310 310 309 308 308 310 312
245 246 248 247 246 246 246 247 248 248 249 251 252 255 256 255 254 252 250 250 250 250 251 253 255 256 257 258 259 259 261 263 265 267 270 271 273 275 276 278 279 280 281 281 283 286 288 292 295 297 298 296 293 290 288 287 287 290 293 296 299 304 305 300 298 303 308 310 310 312 315 316 317 317 318 317 316 316 317 317 315 313 312 311 311
234 235 238 238 240 242 243 245 247 248 250 252 254 255 255 255 253 252 251 250 250 251 252 253 255 256 256 257 258 259 261 263 264 266 268 269 271 273 276 278 279 279 279 279 281 285 288 291 293 295 296 293 290 287 284 283 285 288 289 290 293 296 294 293 297 303 306 306 308 312 315 316 316 317 317 319 321 322 323 324 322 320 319 318 317
215 221 226 228 231 235 238 241 243 246 248 250 251 253 253 253 251 250 249 250 250 251 253 254 255 256 256 257 258 259 261 262 263 264 265 267 269 271 275 278 277 275 276 278 281 284 287 289 292 294 294 291 287 283 281 282 283 279 278 281 285 286 287 292 299 303 302 304 308 310 313 315 315 317 319 322 325 327 327 327 325 324 325 325 323
215 219 223 227 230 233 237 240 242 244 246 247 249 250 250 249 249 248 248 249 249 250 252 253 255 256 257 258 260 261 261 261 261 262 263 266 267 269 272 274 274 273 275 278 280 283 285 287 289 291 290 288 284 280 280 280 273 268 273 279 282 283 288 294 298 298 299 303 306 308 312 314 314 316 320 324 328 330 329 328 328 327 327 327 326
220 223 227 230 235 238 240 243 244 246 247 247 248 248 248 248 248 248 248 249 251 252 254 255 256 258 260 261 262 262 262 262 262 263 263 264 265 266 268 269 270 271 274 276 279 282 283 285 287 288 288 285 280 278 276 270 265 269 277 280 280 283 289 292 294 295 298 302 303 306 310 311 313 317 322 326 330 330 329 329 330 330 330 328 328
228 233 238 243 247 250 251 250 250 250 250 250 250 250 251 250 251 252 253 254 255 256 257 258 259 261 262 264 264 264 265 264 264 263 262 263 264 264 264 264 265 268 272 275 278 280 281 283 285 285 285 281 277 273 268 265 269 275 279 278 279 284 287 288 290 293 296 298 300 304 308 310 313 318 323 327 330 329 329 330 331 333 333 331 330
236 240 245 250 254 256 258 258 258 258 256 256 256 255 255 256 257 258 259 259 260 260 260 261 262 263 264 266 267 267 267 266 266 265 263 263 263 262 262 262 263 265 268 271 274 277 280 283 284 284 283 280 275 270 268 270 274 276 274 274 277 280 282 285 288 290 292 295 297 301 305 308 311 317 322 327 330 330 331 334 335 336 336 333 331
241 245 248 251 253 254 257 257 258 259 258 258 259 258 258 259 259 260 262 262 263 263 264 264 265 266 268 269 269 268 267 268 268 266 265 264 264 263 263 262 262 263 265 268 271 275 278 280 280 279 278 275 271 269 272 276 276 273 272 273 276 278 280 282 283 285 289 292 295 299 303 305 309 315 320 324 327 331 334 336 338 338 337 334 332
243 247 250 253 255 256 257 257 256 257 257 257 258 258 259 260 261 263 265 265 266 267 267 268 269 269 271 271 270 269 269 270 270 270 270 269 269 268 265 263 262 263 265 268 271 273 274 274 273 271 270 268 267 268 271 273 273 273 275 275 276 277 277 277 279 283 287 291 294 298 300 302 306 313 319 322 325 329 333 336 337 337 337 335 332
250 253 255 257 259 260 260 260 260 260 260 259 259 259 259 260 261 263 264 265 266 266 266 267 268 268 268 268 268 269 270 271 272 272 271 269 267 265 263 261 261 262 264 267 269 269 269 269 268 268 267 266 267 268 269 270 271 273 275 275 273 273 272 273 276 279 282 286 290 293 296 300 306 312 315 319 323 327 331 334 335 335 336 334 332
261 263 265 267 269 269 268 267 266 265 263 262 261 261 261 262 262 263 264 265 266 267 267 268 269 268 269 269 270 271 271 271 271 269 266 264 262 261 260 261 262 263 264 265 266 267 268 269 268 267 266 266 268 270 272 274 274 273 271 271 270 269 269 270 273 275 278 282 286 289 293 299 305 310 313 317 321 324 327 329 332 334 335 333 332
265 267 270 272 274 275 276 275 273 271 268 266 264 264 264 264 265 266 268 269 269 270 270 271 272 272 273 274 274 274 274 273 272 269 266 265 263 263 264 265 266 268 269 268 266 267 267 267 268 268 267 269 272 275 276 277 277 274 270 267 266 267 268 268 270 273 277 280 283 287 292 298 303 309 313 316 319 322 323 325 329 331 333 332 331
271 272 274 274 275 277 277 277 278 277 275 274 272 270 270 269 270 270 270 271 272 272 272 273 273 274 275 276 276 275 274 273 272 271 270 269 268 268 270 271 273 274 274 271 268 268 269 270 271 272 273 276 278 278 278 279 278 275 270 266 265 265 265 266 269 272 276 280 283 286 290 296 302 308 311 314 317 319 321 323 326 329 330 330 330
276 277 278 278 278 278 278 279 279 279 279 279 279 278 277 276 276 275 274 273 274 275 275 275 275 274 274 275 276 276 277 276 273 271 270 270 271 273 274 276 277 276 269 262 261 263 265 266 268 270 273 277 279 277 278 279 278 274 270 267 266 264 262 263 267 271 275 279 283 286 291 296 301 305 308 311 315 317 319 322 324 327 328 328 327
277 278 279 279 279 279 279 280 280 281 281 282 282 282 281 280 280 279 277 276 275 276 276 277 278 278 277 276 276 276 277 278 277 275 273 274 276 279 280 279 277 269 257 250 252 254 255 257 262 266 270 274 276 275 275 277 275 271 268 266 266 264 261 261 265 269 274 278 282 286 292 296 299 303 306 309 312 314 316 319 322 325 326 326 326
276 277 279 280 280 280 280 280 280 281 282 282 283 284 283 283 282 281 281 280 280 280 280 280 280 281 281 280 278 277 276 275 275 276 276 274 273 273 273 271 268 262 254 250 250 252 255 259 264 268 272 274 273 272 273 275 273 269 267 266 265 263 262 262 265 269 273 277 281 286 291 294 298 302 306 308 310 312 314 317 320 322 324 325 326
278 279 280 280 280 280 279 279 279 280 281 282 283 283 284 285 285 285 285 286 285 286 286 286 286 284 283 284 283 281 278 275 273 271 270 268 266 263 260 260 261 261 260 259 259 259 262 265 267 270 272 272 270 269 272 274 272 269 266 264 262 262 262 262 265 268 272 276 281 285 289 293 297 301 303 305 307 310 312 315 317 319 322 325 325
281 281 281 280 279 278 278 278 278 279 279 280 281 283 284 286 287 288 288 289 289 290 291 291 291 290 287 285 284 282 280 278 276 274 273 272 269 265 261 260 260 261 262 264 265 266 267 269 270 270 270 268 267 269 272 273 271 267 263 261 261 262 262 263 265 268 272 276 280 284 288 292 296 299 301 303 305 308 310 313 315 317 321 324 324
281 280 279 279 278 278 278 278 278 279 279 281 282 284 286 287 289 290 292 293 294 295 295 294 294 293 290 287 284 282 281 280 279 278 277 275 271 266 263 261 260 261 263 266 268 270 272 273 273 271 270 268 268 269 272 272 269 264 261 259 260 261 262 264 266 269 274 278 280 284 287 291 294 296 298 301 304 307 309 310 313 315 319 323 324
278 278 278 277 278 278 278 279 280 281 282 284 286 288 290 292 294 297 298 299 299 298 296 295 293 291 291 288 286 285 283 282 281 280 278 276 274 270 266 262 260 259 261 263 266 268 270 272 272 272 272 271 269 270 272 271 267 262 259 258 258 260 262 265 268 270 274 278 281 283 286 289 291 294 297 300 303 305 306 308 311 314 318 321 322
277 277 277 276 277 278 279 281 283 284 286 288 290 293 296 298 300 301 301 300 299 297 295 294 292 291 291 290 290 289 288 287 286 285 284 282 279 275 271 267 265 262 261 261 261 263 264 266 268 270 271 272 271 271 272 270 264 258 256 257 258 259 261 264 268 271 274 278 280 282 285 288 290 293 296 299 301 303 304 305 308 313 316 318 320
276 277 277 276 279 281 283 285 288 290 293 296 297 299 301 301 300 301 300 299 298 296 296 296 295 295 296 297 297 296 295 295 296 296 294 292 289 284 279 275 272 270 268 266 264 263 263 264 266 267 268 269 269 269 269 265 259 256 256 257 259 261 262 265 268 272 275 278 281 283 285 288 291 293 296 298 299 301 302 303 306 310 313 316 319
276 277 278 280 284 287 289 293 296 298 300 301 301 300 300 299 298 298 297 297 297 297 298 299 301 303 305 306 306 305 303 303 302 301 299 297 295 293 290 286 282 279 275 272 270 268 266 265 264 264 264 264 265 265 263 259 255 254 255 257 260 262 264 266 270 274 277 279 281 283 286 289 291 293 295 297 298 299 300 301 304 308 312 315 318
276 279 283 286 289 293 296 298 301 301 301 300 299 298 298 297 296 296 296 296 297 299 301 303 306 308 311 311 311 310 309 308 306 303 300 299 297 296 295 294 291 287 282 277 273 270 268 267 266 265 265 264 264 262 258 254 252 252 254 257 260 263 265 269 272 275 278 280 282 285 287 289 291 292 294 296 297 298 298 301 303 307 311 315 317
279 283 287 290 293 296 298 298 298 298 297 297 296 296 295 295 295 295 296 297 299 301 303 305 308 311 314 316 317 318 317 316 314 310 307 303 302 301 300 299 297 293 288 282 276 271 269 269 269 269 268 266 264 261 257 253 251 253 255 258 261 264 267 271 274 276 279 281 283 286 288 288 290 292 293 295 297 297 297 300 302 304 309 314 315
286 287 290 294 295 296 297 297 297 296 295 294 294 293 293 293 293 293 294 296 297 299 302 305 309 314 319 323 326 327 327 326 324 321 317 313 310 309 307 303 301 297 292 286 280 274 270 270 271 270 269 265 263 261 258 253 252 255 257 260 263 265 268 272 275 277 280 282 284 286 287 288 289 292 293 294 296 296 297 299 301 304 308 312 313
289 291 294 295 294 295 295 294 293 293 293 292 292 291 290 290 290 290 291 293 295 299 303 308 314 319 324 328 330 330 330 330 328 327 324 321 317 314 312 308 305 301 295 288 281 276 274 273 273 271 267 261 258 257 256 254 255 258 260 262 265 268 270 274 276 278 280 283 284 285 287 288 290 292 293 294 295 296 297 299 300 303 306 309 312
290 292 292 291 291 291 290 288 288 289 288 288 287 287 288 288 288 289 292 295 299 303 308 313 318 323 327 330 330 330 330 330 329 328 326 324 320 318 315 312 309 305 300 293 287 284 282 280 277 270 262 256 253 253 255 257 258 261 262 264 267 270 272 275 277 279 280 282 283 284 286 288 289 291 292 293 296 297 297 298 300 302 305 308 312
289 288 288 287 287 285 284 284 284 284 284 284 285 285 286 287 289 292 296 300 304 308 311 315 319 323 325 327 329 329 330 330 330 328 327 325 322 318 315 313 312 309 304 299 295 292 288 285 278 270 262 257 255 256 258 260 261 263 264 266 269 272 274 276 277 278 280 281 282 283 284 285 287 289 291 294 296 297 298 299 300 301 303 306 310
289 287 286 286 284 283 284 284 283 283 284 284 284 284 285 288 291 294 298 302 306 309 312 315 318 321 323 326 327 328 329 329 328 327 326 326 324 320 317 314 312 309 306 303 300 296 292 287 281 274 268 264 263 263 264 265 266 267 269 270 272 274 275 277 278 279 280 280 280 281 282 284 286 289 292 295 297 299 299 299 300 300 301 303 307
287 285 285 285 285 286 286 285 285 286 286 284 285 287 289 291 294 296 299 302 305 307 311 315 317 320 322 324 325 326 327 326 325 325 326 325 324 322 319 316 312 309 306 303 300 296 294 290 286 282 278 276 274 273 273 273 273 273 274 274 274 275 275 277 278 278 278 278 279 280 282 284 286 289 293 296 297 298 298 298 299 299 299 300 303
285 285 286 286 285 286 287 287 287 288 288 289 291 292 293 295 297 298 300 303 305 308 311 313 314 317 320 322 322 323 323 322 323 324 325 324 322 321 320 318 316 312 308 305 301 298 295 291 289 287 285 283 281 280 279 278 278 277 276 275 275 276 276 277 277 276 277 278 280 281 283 285 288 291 293 295 295 296 298 299 300 299 297 297 299
Height
1534 1537 1539 1541 1543 1544 1545 1547 1548 1550 1551 1553 1554 1554 1555 1556 1557 1558 1559 1559 1560 1560 1561 1561 1562 1563 1564 1565 1566 1567 1567 1567 1568 1568 1568 1568 1568 1568 1569 1569 1569 1569 1569 1568 1568 1567 1567 1566 1565 1565 1564 1564 1563 1562 1562 1561 1560 1560 1559 1558 1557 1557 1555 1553 1550 1546 1544 1544 1541 1540 1539 1537 1534 1532 1529 1526 1526 1524 1522 1519 1517 1515 1512 1509 1507
1532 1535 1537 1539 1541 1543 1544 1545 1546 1548 1549 1551 1552 1553 1554 1555 1556 1557 1558 1558 1558 1559 1559 1559 1560 1561 1562 1563 1564 1565 1565 1565 1565 1565 1566 1566 1566 1567 1567 1567 1567 1567 1567 1566 1566 1565 1565 1564 1563 1562 1562 1561 1561 1560 1559 1559 1558 1558 1557 1556 1555 1554 1553 1550 1548 1544 1541 1540 1539 1537 1536 1533 1530 1528 1526 1522 1520 1518 1516 1515 1512 1510 1507 1505 1502
1531 1533 1535 1537 1539 1541 1542 1543 1544 1546 1547 1548 1549 1550 1551 1553 1554 1555 1556 1556 1557 1557 1557 1558 1559 1560 1561 1562 1562 1563 1563 1563 1563 1563 1564 1564 1565 1565 1565 1565 1565 1565 1565 1564 1564 1563 1563 1562 1561 1560 1560 1559 1558 1558 1557 1557 1556 1555 1555 1554 1553 1551 1550 1548 1546 1543 1539 1536 1535 1533 1531 1530 1527 1524 1522 1520 1517 1514 1511 1509 1507 1505 1502 1499 1497
1529 1531 1533 1535 1537 1539 1540 1541 1542 1543 1545 1546 1547 1548 1549 1550 1552 1553 1554 1554 1554 1555 1555 1556 1557 1558 1559 1560 1560 1561 1560 1560 1560 1561 1562 1562 1563 1563 1563 1563 1563 1563 1562 1562 1562 1561 1560 1560 1559 1558 1557 1557 1556 1556 1555 1554 1553 1553 1552 1551 1550 1548 1547 1546 1543 1541 1537 1533 1531 1530 1527 1525 1523 1520 1518 1516 1513 1511 1508 1505 1503 1500 1498 1495 1492
1526 1528 1531 1533 1534 1536 1537 1539 1540 1541 1543 1544 1545 1546 1547 1548 1549 1550 1551 1552 1552 1552 1553 1554 1555 1556 1557 1558 1558 1559 1558 1558 1558 1559 1559 1560 1561 1561 1561 1561 1561 1560 1560 1560 1559 1559 1558 1557 1556 1555 1554 1554 1554 1553 1552 1551 1550 1550 1549 1548 1547 1545 1544 1543 1541 1538 1535 1531 1528 1526 1524 1522 1520 1517 1514 1511 1509 1506 1504 1502 1499 1496 1493 1491 1489
1524 1526 1528 1530 1532 1534 1535 1536 1537 1539 1540 1542 1543 1544 1545 1546 1547 1548 1549 1549 1550 1550 1551 1552 1553 1554 1555 1556 1556 1557 1557 1556 1556 1557 1557 1558 1558 1559 1559 1559 1558 1558 1558 1557 1557 1556 1555 1554 1553 1553 1552 1551 1551 1550 1549 1548 1547 1546 1546 1544 1543 1542 1541 1539 1537 1535 1533 1530 1526 1523 1520 1518 1516 1514 1511 1508 1505 1501 1498 1496 1494 1492 1489 1486 1483
1521 1523 1525 1528 1529 1530 1532 1533 1535 1537 1538 1539 1541 1542 1543 1544 1545 1546 1547 1547 1547 1547 1548 1550 1551 1552 1553 1553 1554 1554 1554 1554 1554 1554 1555 1556 1556 1556 1556 1556 1556 1555 1555 1555 1554 1553 1552 1552 1551 1550 1549 1549 1548 1547 1546 1545 1544 1543 1542 1541 1540 1539 1537 1536 1534 1532 1529 1526 1523 1520 1517 1514 1512 1509 1507 1504 1502 1499 1495 1490 1487 1486 1485 1481 1478
1517 1520 1522 1524 1526 1527 1529 1531 1533 1535 1536 1537 1539 1539 1540 1541 1542 1544 1544 1544 1544 1545 1546 1547 1549 1550 1550 1551 1551 1552 1552 1552 1552 1552 1553 1553 1553 1553 1553 1553 1553 1553 1552 1552 1551 1550 1549 1549 1548 1547 1547 1546 1545 1544 1543 1542 1541 1540 1539 1538 1537 1535 1534 1532 1530 1528 1526 1522 1519 1516 1513 1510 1508 1505 1503 1500 1498 1496 1494 1489 1483 1480 1479 1476 1474
1514 1517 1519 1521 1523 1525 1527 1529 1530 1532 1534 1535 1536 1536 1538 1539 1540 1541 1542 1542 1542 1543 1544 1545 1546 1547 1548 1548 1549 1549 1549 1550 1550 1550 1550 1551 1551 1550 1550 1550 1550 1550 1549 1549 1548 1547 1547 1546 1546 1545 1544 1543 1542 1541 1540 1539 1538 1537 1536 1535 1534 1532 1531 1529 1527 1524 1522 1518 1516 1513 1510 1507 1504 1502 1499 1497 1495 1493 1491 1488 1483 1478 1475 1471 1469
1511 1513 1515 1517 1519 1522 1524 1526 1527 1529 1530 1532 1533 1533 1535 1536 1537 1538 1538 1539 1540 1540 1541 1542 1543 1544 1545 1545 1546 1546 1547 1547 1548 1548 1548 1548 1548 1547 1547 1547 1547 1546 1546 1546 1545 1544 1544 1543 1543 1542 1541 1540 1539 1538 1537 1536 1535 1534 1533 1531 1530 1529 1527 1525 1523 1520 1518 1514 1512 1510 1507 1504 1502 1500 1497 1494 1494 1491 1488 1486 1481 1476 1472 1466 1462
1507 1509 1511 1514 1516 1518 1520 1522 1524 1526 1527 1529 1529 1530 1532 1533 1534 1535 1535 1536 1537 1537 1538 1539 1540 1541 1542 1542 1543 1543 1544 1545 1545 1545 1545 1545 1545 1544 1544 1544 1543 1543 1543 1542 1542 1541 1541 1541 1540 1539 1538 1537 1536 1535 1534 1534 1532 1531 1530 1529 1527 1525 1524 1521 1519 1517 1514 1511 1509 1507 1505 1502 1500 1499 1496 1492 1490 1489 1486 1483 1479 1474 1470 1465 1459
1504 1506 1508 1510 1512 1514 1517 1519 1521 1523 1524 1525 1526 1527 1529 1530 1530 1531 1531 1532 1533 1534 1535 1536 1537 1538 1539 1539 1540 1540 1541 1542 1542 1542 1542 1542 1541 1541 1541 1541 1540 1540 1539 1538 1538 1538 1537 1537 1537 1536 1535 1534 1533 1532 1531 1530 1529 1528 1527 1526 1524 1523 1521 1519 1516 1514 1512 1509 1506 1504 1503 1500 1497 1495 1494 1491 1487 1485 1483 1480 1478 1474 1469 1464 1459
1501 1503 1505 1507 1508 1511 1514 1516 1518 1519 1520 1522 1523 1524 1526 1526 1526 1527 1528 1529 1531 1531 1532 1533 1534 1535 1536 1536 1537 1537 1538 1539 1539 1539 1538 1538 1538 1537 1537 1537 1536 1536 1536 1535 1535 1534 1534 1534 1533 1533 1532 1531 1530 1529 1527 1527 1526 1524 1523 1522 1520 1519 1517 1516 1514 1512 1510 1507 1504 1501 1500 1498 1494 1492 1492 1490 1486 1483 1480 1477 1475 1472 1467 1462 1458
1498 1499 1501 1503 1505 1509 1511 1513 1515 1516 1517 1518 1520 1520 1522 1522 1523 1524 1525 1526 1527 1528 1529 1530 1531 1532 1532 1533 1534 1535 1535 1536 1536 1536 1535 1535 1535 1534 1533 1533 1533 1532 1532 1531 1531 1531 1530 1530 1529 1529 1528 1527 1526 1525 1524 1523 1521 1520 1519 1518 1516 1515 1513 1512 1510 1508 1506 1503 1500 1497 1496 1496 1493 1490 1490 1490 1486 1482 1479 1475 1472 1469 1464 1460 1457
1494 1496 1498 1500 1503 1505 1508 1509 1511 1512 1513 1515 1515 1516 1518 1518 1519 1521 1522 1523 1524 1525 1526 1527 1528 1529 1530 1530 1531 1531 1532 1533 1532 1532 1532 1532 1531 1530 1529 1529 1528 1528 1528 1527 1527 1527 1527 1526 1525 1525 1524 1523 1523 1521 1520 1519 1517 1516 1515 1513 1512 1511 1509 1508 1506 1503 1500 1498 1496 1494 1493 1493 1492 1490 1488 1488 1485 1481 1477 1473 1469 1465 1460 1455 1452
1491 1492 1494 1497 1499 1501 1503 1505 1507 1508 1510 1511 1511 1513 1514 1514 1516 1518 1519 1520 1521 1522 1523 1524 1525 1526 1526 1527 1527 1528 1529 1529 1529 1529 1528 1528 1527 1526 1526 1525 1524 1524 1524 1523 1523 1523 1523 1522 1522 1521 1520 1519 1519 1517 1516 1515 1513 1512 1511 1509 1508 1506 1505 1503 1500 1498 1496 1495 1495 1494 1492 1491 1490 1488 1486 1484 1481 1476 1472 1467 1464 1461 1456 1451 1447
1487 1488 1490 1493 1495 1497 1499 1501 1503 1504 1506 1507 1508 1509 1510 1511 1513 1515 1516 1516 1517 1518 1519 1520 1521 1522 1523 1523 1523 1524 1525 1526 1525 1525 1525 1524 1523 1522 1522 1521 1520 1520 1520 1520 1519 1519 1519 1518 1518 1517 1516 1515 1514 1513 1512 1511 1509 1508 1506 1505 1503 1502 1500 1498 1496 1494 1493 1493 1492 1491 1489 1488 1486 1483 1481 1479 1476 1472 1467 1462 1459 1457 1453 1449 1445
1483 1485 1487 1489 1491 1493 1495 1497 1499 1500 1502 1503 1504 1506 1507 1509 1510 1511 1512 1513 1514 1515 1516 1517 1518 1518 1519 1519 1520 1520 1521 1522 1521 1521 1521 1520 1519 1518 1518 1517 1516 1516 1516 1516 1515 1515 1515 1515 1514 1513 1512 1511 1510 1509 1508 1507 1505 1504 1502 1500 1499 1497 1495 1493 1491 1489 1489 1488 1487 1486 1485 1483 1481 1479 1477 1475 1472 1469 1464 1460 1457 1454 1451 1448 1445
1481 1483 1485 1487 1489 1490 1492 1494 1495 1497 1498 1500 1501 1503 1504 1506 1507 1508 1509 1510 1511 1512 1513 1514 1514 1514 1515 1516 1516 1516 1517 1517 1517 1517 1517 1516 1515 1514 1514 1513 1512 1512 1512 1512 1511 1511 1511 1510 1510 1509 1508 1507 1506 1505 1504 1502 1501 1499 1498 1496 1494 1492 1491 1489 1487 1485 1484 1483 1482 1481 1480 1479 1477 1474 1473 1471 1468 1465 1462 1459 1456 1452 1449 1446 1444
1480 1482 1483 1485 1487 1488 1489 1491 1492 1494 1495 1497 1499 1500 1501 1503 1504 1505 1506 1507 1507 1509 1509 1510 1510 1510 1511 1511 1512 1512 1512 1513 1513 1513 1512 1512 1511 1510 1509 1508 1508 1509 1508 1507 1507 1506 1506 1506 1506 1505 1504 1503 1502 1500 1499 1498 1496 1495 1493 1492 1490 1488 1487 1486 1483 1482 1481 1479 1478 1477 1476 1475 1473 1471 1469 1467 1465 1462 1460 1457 1454 1450 1447 1444 1442
1479 1481 1482 1483 1484 1485 1487 1488 1489 1491 1493 1494 1496 1497 1498 1499 1500 1501 1502 1503 1504 1505 1505 1506 1506 1506 1507 1507 1507 1507 1508 1508 1508 1508 1507 1507 1506 1505 1505 1504 1505 1505 1504 1503 1502 1502 1502 1501 1501 1501 1500 1499 1497 1496 1495 1494 1492 1491 1489 1488 1487 1486 1484 1482 1480 1479 1478 1476 1475 1474 1473 1471 1470 1468 1466 1464 1461 1459 1456 1454 1451 1448 1445 1442 1439
1478 1479 1480 1482 1483 1484 1485 1486 1487 1489 1490 1491 1493 1493 1495 1496 1496 1497 1498 1499 1500 1501 1501 1501 1502 1502 1502 1502 1502 1503 1503 1503 1504 1503 1503 1502 1502 1501 1500 1500 1501 1500 1499 1498 1498 1497 1497 1496 1496 1496 1495 1494 1493 1492 1491 1490 1489 1487 1486 1485 1484 1483 1480 1478 1476 1475 1474 1473 1472 1471 1470 1468 1466 1464 1463 1460 1458 1456 1453 1451 1449 1446 1443 1441 1438
1477 1478 1479 1480 1481 1482 1483 1484 1485 1486 1487 1488 1489 1490 1491 1492 1493 1493 1494 1495 1496 1496 1497 1497 1497 1497 1497 1497 1498 1498 1498 1498 1498 1498 1498 1498 1497 1497 1496 1496 1496 1495 1494 1494 1493 1493 1492 1491 1491 1491 1490 1489 1489 1487 1486 1486 1485 1483 1482 1482 1481 1479 1476 1475 1473 1472 1471 1470 1469 1467 1466 1465 1463 1461 1459 1457 1454 1452 1450 1448 1446 1443 1441 1438 1436
1476 1477 1478 1479 1479 1480 1481 1482 1483 1484 1485 1486 1486 1487 1488 1489 1489 1490 1491 1491 1492 1492 1492 1493 1492 1492 1493 1493 1493 1493 1493 1493 1493 1493 1493 1493 1493 1492 1492 1492 1491 1490 1489 1489 1488 1488 1487 1487 1486 1486 1485 1485 1484 1483 1482 1481 1480 1479 1479 1478 1476 1474 1473 1471 1470 1468 1467 1467 1466 1464 1463 1462 1460 1457 1456 1454 1451 1449 1448 1446 1443 1441 1438 1435 1433
1474 1475 1476 1477 1478 1479 1479 1480 1481 1482 1483 1483 1484 1484 1485 1485 1486 1487 1487 1487 1488 1488 1488 1488 1488 1488 1488 1488 1488 1488 1488 1488 1488 1488 1489 1488 1488 1488 1487 1487 1486 1485 1485 1484 1484 1483 1483 1482 1481 1480 1480 1480 1479 1478 1477 1476 1475 1475 1475 1474 1472 1471 1470 1468 1467 1465 1464 1464 1462 1461 1460 1459 1457 1455 1453 1451 1449 1447 1445 1443 1441 1438 1435 1432 1430
1473 1474 1475 1476 1477 1477 1478 1478 1479 1479 1480 1481 1481 1482 1482 1483 1483 1483 1484 1484 1484 1484 1484 1484 1484 1483 1483 1483 1483 1484 1484 1483 1483 1483 1484 1484 1483 1483 1482 1482 1482 1481 1480 1479 1479 1478 1478 1477 1476 1475 1475 1474 1474 1473 1472 1471 1471 1471 1471 1470 1469 1468 1466 1465 1464 1462 1461 1460 1459 1458 1457 1456 1454 1453 1450 1448 1447 1444 1442 1439 1437 1435 1432 1429 1426
1471 1472 1473 1474 1475 1475 1476 1476 1477 1477 1478 1478 1479 1479 1479 1479 1480 1479 1480 1480 1480 1480 1480 1480 1479 1479 1479 1479 1479 1479 1479 1478 1478 1479 1479 1479 1478 1478 1478 1478 1477 1476 1475 1475 1475 1474 1473 1473 1472 1471 1470 1470 1469 1468 1467 1467 1467 1467 1466 1466 1465 1464 1463 1461 1460 1459 1458 1457 1456 1455 1454 1453 1452 1450 1448 1446 1444 1442 1439 1436 1434 1431 1429 1426 1423
1469 1470 1471 1472 1472 1473 1473 1474 1474 1475 1475 1475 1475 1475 1475 1475 1475 1475 1475 1475 1475 1475 1475 1475 1475 1474 1474 1474 1474 1474 1473 1473 1473 1474 1475 1475 1474 1474 1474 1473 1472 1471 1471 1471 1471 1470 1469 1468 1467 1467 1466 1466 1465 1464 1463 1463 1463 1462 1462 1461 1461 1460 1459 1458 1457 1456 1455 1453 1452 1451 1451 1450 1449 1447 1445 1444 1442 1440 1437 1434 1432 1429 1426 1423 1420
1467 1468 1468 1469 1470 1470 1470 1471 1471 1471 1471 1471 1472 1471 1471 1472 1471 1471 1471 1471 1471 1471 1470 1470 1470 1470 1469 1469 1469 1468 1468 1468 1469 1469 1469 1469 1469 1468 1468 1468 1467 1467 1467 1467 1466 1465 1464 1463 1462 1461 1461 1461 1461 1461 1460 1460 1459 1458 1457 1457 1457 1456 1456 1455 1454 1453 1452 1450 1449 1448 1447 1447 1446 1444 1442 1441 1439 1437 1434 1432 1429 1426 1424 1421 1418
1465 1465 1465 1466 1466 1466 1467 1467 1467 1467 1468 1468 1468 1468 1468 1468 1467 1467 1467 1467 1467 1466 1466 1465 1465 1465 1464 1464 1463 1463 1462 1463 1463 1463 1462 1462 1462 1462 1462 1462 1462 1462 1462 1462 1461 1460 1458 1457 1456 1456 1456 1456 1456 1456 1456 1455 1455 1454 1454 1453 1453 1452 1452 1451 1450 1449 1449 1447 1446 1445 1444 1443 1442 1441 1439 1437 1436 1434 1432 1430 1427 1424 1421 1418 1415
1462 1462 1462 1463 1463 1463 1463 1463 1463 1463 1463 1463 1463 1463 1463 1463 1463 1463 1463 1462 1462 1462 1461 1460 1460 1459 1459 1458 1458 1458 1458 1457 1457 1457 1457 1457 1457 1456 1457 1457 1457 1457 1458 1458 1456 1454 1453 1452 1451 1450 1451 1451 1450 1450 1451 1450 1450 1450 1450 1449 1449 1448 1448 1447 1447 1446 1445 1444 1443 1442 1441 1440 1439 1438 1436 1434 1432 1431 1429 1427 1425 1422 1419 1416 1413
1459 1459 1459 1459 1459 1459 1459 1459 1459 1459 1459 1459 1459 1459 1458 1458 1458 1458 1458 1457 1456 1456 1456 1455 1455 1454 1453 1453 1452 1452 1452 1452 1452 1452 1452 1452 1452 1452 1452 1452 1452 1452 1452 1452 1450 1448 1447 1446 1445 1444 1445 1445 1445 1446 1446 1446 1446 1446 1445 1445 1445 1445 1444 1443 1443 1442 1441 1441 1440 1439 1438 1437 1435 1434 1433 1431 1429 1427 1426 1424 1422 1419 1416 1414 1411
1455 1455 1455 1455 1455 1455 1455 1455 1455 1455 1454 1454 1454 1454 1454 1454 1453 1453 1453 1452 1452 1451 1450 1450 1449 1449 1448 1448 1447 1446 1446 1447 1447 1447 1447 1447 1447 1447 1447 1447 1447 1447 1448 1447 1445 1443 1442 1441 1440 1440 1440 1441 1441 1441 1442 1442 1442 1442 1441 1441 1441 1441 1441 1440 1439 1439 1438 1437 1436 1435 1434 1434 1432 1431 1430 1428 1426 1424 1422 1420 1418 1416 1413 1410 1408
1452 1452 1452 1451 1451 1451 1451 1451 1451 1450 1450 1450 1450 1450 1449 1449 1449 1448 1448 1448 1447 1447 1446 1445 1444 1444 1444 1444 1443 1443 1442 1442 1442 1443 1443 1443 1443 1443 1443 1443 1443 1443 1443 1442 1441 1440 1439 1438 1437 1437 1437 1437 1437 1437 1438 1438 1438 1437 1437 1437 1437 1437 1437 1436 1435 1435 1435 1434 1433 1432 1431 1430 1429 1428 1426 1425 1423 1421 1419 1417 1415 1413 1410 1408 1404
1448 1448 1448 1448 1447 1447 1447 1447 1447 1446 1446 1446 1446 1445 1445 1444 1444 1444 1443 1442 1442 1442 1441 1441 1440 1440 1439 1439 1439 1440 1440 1439 1439 1439 1439 1440 1440 1440 1440 1439 1437 1437 1438 1437 1436 1436 1435 1434 1433 1433 1433 1433 1433 1433 1434 1434 1433 1433 1433 1433 1433 1433 1432 1432 1432 1431 1431 1430 1429 1428 1428 1427 1426 1425 1423 1421 1420 1418 1416 1414 1412 1410 1408 1405 1402
1444 1444 1444 1444 1443 1443 1443 1443 1443 1443 1442 1442 1442 1441 1441 1440 1440 1439 1438 1438 1437 1437 1436 1436 1436 1436 1436 1436 1436 1436 1436 1436 1436 1436 1436 1436 1436 1437 1436 1434 1433 1432 1432 1431 1431 1431 1430 1430 1429 1429 1429 1429 1429 1429 1430 1429 1429 1429 1429 1429 1429 1428 1428 1428 1428 1428 1427 1427 1426 1425 1424 1423 1423 1421 1420 1418 1417 1415 1413 1411 1409 1407 1405 1403 1400
1440 1440 1440 1440 1440 1440 1439 1439 1439 1439 1438 1438 1438 1437 1437 1436 1436 1435 1434 1434 1433 1433 1433 1433 1433 1433 1433 1433 1433 1432 1432 1432 1432 1431 1431 1432 1432 1431 1430 1429 1428 1427 1426 1426 1425 1425 1424 1424 1424 1424 1424 1425 1425 1425 1425 1425 1425 1424 1424 1424 1424 1424 1424 1424 1424 1424 1423 1423 1423 1422 1421 1420 1419 1418 1416 1415 1413 1412 1410 1408 1406 1404 1402 1400 1398
1437 1437 1437 1437 1436 1436 1436 1435 1435 1435 1434 1434 1434 1433 1433 1433 1432 1432 1431 1431 1430 1430 1430 1430 1430 1430 1430 1430 1430 1429 1428 1428 1427 1427 1426 1426 1426 1426 1425 1424 1423 1422 1421 1421 1421 1420 1419 1419 1419 1420 1420 1420 1420 1420 1420 1420 1420 1420 1420 1420 1420 1420 1420 1420 1420 1420 1420 1419 1419 1418 1417 1416 1416 1415 1413 1411 1410 1408 1407 1405 1403 1401 1399 1397 1395
1434 1433 1433 1433 1433 1433 1432 1432 1432 1431 1431 1431 1431 1430 1430 1429 1429 1429 1428 1428 1428 1428 1427 1427 1427 1427 1426 1426 1426 1425 1424 1423 1422 1422 1421 1421 1420 1420 1419 1418 1417 1417 1416 1416 1415 1415 1414 1414 1414 1415 1415 1415 1415 1416 1416 1416 1416 1416 1416 1416 1415 1416 1416 1416 1416 1416 1416 1415 1415 1415 1414 1413 1412 1411 1410 1408 1407 1405 1403 1402 1400 1398 1396 1394 1392
1430 1430 1430 1430 1430 1430 1429 1429 1429 1429 1428 1428 1428 1427 1427 1427 1426 1426 1426 1425 1425 1425 1425 1424 1424 1423 1423 1422 1421 1420 1419 1418 1417 1416 1415 1415 1414 1414 1413 1412 1412 1411 1410 1410 1410 1410 1410 1410 1410 1410 1410 1410 1411 1411 1411 1411 1411 1411 1411 1411 1411 1412 1412 1412 1412 1412 1412 1412 1411 1411 1410 1409 1408 1407 1406 1405 1404 1402 1400 1399 1397 1395 1393 1391 1390
1428 1428 1427 1427 1427 1427 1426 1426 1426 1426 1425 1425 1425 1425 1424 1424 1424 1424 1423 1423 1422 1422 1422 1421 1420 1420 1419 1418 1417 1416 1415 1413 1412 1411 1410 1409 1408 1407 1407 1407 1406 1405 1405 1405 1404 1404 1404 1404 1404 1404 1405 1405 1405 1406 1406 1406 1406 1406 1407 1407 1407 1408 1408 1409 1409 1409 1408 1408 1407 1407 1406 1406 1405 1403 1402 1401 1400 1399 1397 1396 1394 1392 1391 1389 1387
1425 1425 1425 1425 1424 1424 1424 1424 1423 1423 1423 1423 1422 1422 1422 1422 1422 1421 1421 1420 1420 1419 1419 1418 1417 1417 1416 1415 1414 1413 1411 1410 1408 1407 1405 1404 1402 1401 1401 1401 1400 1400 1400 1399 1399 1399 1399 1398 1399 1399 1399 1400 1400 1400 1401 1401 1402 1402 1403 1403 1404 1404 1404 1405 1405 1405 1404 1404 1403 1403 1402 1402 1401 1400 1399 1398 1397 1395 1394 1392 1391 1390 1388 1386 1385
1423 1423 1423 1422 1422 1422 1422 1421 1421 1421 1421 1421 1420 1420 1420 1420 1420 1419 1418 1418 1417 1417 1416 1415 1415 1414 1413 1412 1411 1409 1408 1407 1405 1403 1402 1400 1399 1397 1396 1396 1395 1395 1395 1394 1394 1394 1394 1393 1394 1394 1394 1395 1395 1396 1396 1397 1397 1398 1399 1399 1400 1400 1401 1401 1401 1401 1400 1400 1399 1399 1398 1398 1397 1396 1395 1394 1393 1392 1390 1389 1388 1386 1385 1384 1382
1421 1421 1420 1420 1420 1420 1420 1419 1419 1419 1419 1419 1419 1418 1418 1418 1417 1417 1416 1416 1415 1414 1413 1413 1412 1411 1410 1409 1408 1406 1405 1403 1402 1400 1399 1397 1396 1395 1393 1392 1391 1390 1390 1390 1389 1389 1389 1389 1389 1389 1390 1390 1391 1391 1392 1393 1393 1394 1395 1395 1396 1396 1397 1397 1398 1397 1396 1396 1395 1395 1395 1394 1393 1392 1392 1391 1390 1388 1387 1386 1385 1383 1382 1381 1380
1419 1419 1419 1418 1418 1418 1418 1417 1417 1417 1417 1417 1417 1416 1416 1416 1415 1414 1414 1413 1413 1412 1411 1410 1409 1408 1407 1406 1405 1403 1402 1400 1399 1397 1396 1394 1393 1392 1390 1389 1388 1387 1386 1386 1386 1385 1385 1385 1385 1385 1386 1387 1387 1388 1389 1389 1390 1391 1391 1392 1392 1392 1393 1393 1393 1393 1392 1392 1391 1391 1390 1390 1389 1389 1388 1387 1386 1385 1384 1383 1382 1380 1379 1378 1377
1418 1417 1417 1417 1417 1416 1416 1416 1416 1415 1415 1415 1414 1414 1414 1414 1413 1413 1412 1411 1411 1410 1409 1408 1407 1406 1404 1403 1401 1400 1398 1397 1396 1394 1393 1392 1390 1389 1388 1387 1386 1385 1384 1383 1383 1382 1382 1381 1381 1382 1382 1383 1384 1384 1385 1386 1387 1387 1388 1388 1388 1389 1389 1389 1389 1389 1388 1388 1387 1387 1387 1386 1385 1385 1384 1384 1383 1382 1381 1380 1379 1378 1377 1376 1375
1416 1416 1416 1416 1415 1415 1415 1414 1414 1414 1413 1413 1413 1412 1412 1411 1411 1411 1410 1409 1409 1408 1407 1405 1404 1403 1401 1400 1399 1397 1396 1395 1393 1392 1391 1389 1388 1387 1386 1384 1383 1382 1381 1381 1380 1379 1379 1379 1379 1379 1380 1380 1381 1381 1382 1383 1383 1384 1384 1385 1385 1385 1385 1385 1385 1385 1385 1384 1384 1383 1383 1382 1381 1381 1381 1380 1379 1378 1378 1377 1376 1375 1374 1373 1372
1415 1415 1414 1414 1414 1414 1413 1413 1413 1412 1412 1411 1411 1410 1410 1409 1409 1408 1407 1407 1406 1405 1404 1403 1402 1400 1399 1398 1396 1395 1394 1392 1391 1390 1389 1387 1386 1385 1383 1382 1381 1380 1379 1379 1378 1378 1377 1377 1377 1377 1377 1377 1378 1378 1379 1379 1380 1380 1381 1381 1381 1381 1381 1381 1381 1381 1381 1381 1380 1380 1379 1378 1378 1378 1377 1377 1376 1375 1374 1374 1373 1372 1371 1370 1370
1413 1413 1413 1412 1412 1412 1411 1411 1411 1410 1410 1409 1409 1408 1408 1407 1407 1406 1405 1404 1403 1402 1401 1400 1399 1397 1396 1395 1394 1393 1391 1390 1389 1388 1386 1385 1384 1383 1381 1380 1379 1378 1377 1377 1376 1376 1375 1375 1375 1375 1375 1375 1375 1376 1376 1376 1377 1377 1377 1377 1377 1377 1377 1377 1377 1377 1377 1377 1377 1376 1375 1375 1374 1374 1374 1373 1373 1372 1371 1371 1370 1369 1368 1368 1367
1411 1411 1411 1410 1410 1410 1409 1409 1408 1408 1408 1407 1407 1406 1406 1405 1404 1403 1402 1401 1400 1399 1398 1397 1396 1395 1394 1393 1392 1391 1389 1388 1387 1386 1384 1383 1382 1380 1379 1378 1377 1376 1376 1375 1374 1374 1373 1373 1373 1372 1372 1372 1373 1373 1373 1373 1374 1374 1374 1374 1374 1374 1374 1374 1374 1374 1374 1373 1373 1372 1372 1371 1371 1371 1371 1370 1370 1369 1368 1368 1367 1366 1366 1365 1364
1409 1409 1409 1408 1408 1407 1407 1406 1406 1406 1405 1405 1404 1404 1403 1402 1402 1401 1400 1399 1398 1397 1396 1395 1394 1393 1391 1390 1389 1388 1387 1386 1385 1383 1382 1381 1380 1378 1377 1376 1375 1374 1374 1373 1372 1372 1371 1371 1370 1370 1370 1370 1370 1370 1370 1370 1370 1370 1370 1370 1370 1370 1370 1370 1370 1370 1370 1370 1369 1369 1368 1368 1368 1368 1368 1367 1367 1366 1365 1364 1364 1363 1363 1362 1362